Year,Month,Day,Hour,Minute,Value (Times are PST for windgust in km/hr)
2018,09,29,04,57,1.60
2018,09,29,04,58,3.20
2018,09,29,05,50,3.20
2018,09,29,05,51,3.20
2018,09,29,05,53,3.20
2018,09,29,05,54,1.60
2018,09,29,06,27,1.60
2018,09,29,09,55,3.20
2018,09,29,09,56,4.80
2018,09,29,09,57,3.20
2018,09,29,09,58,3.20
2018,09,29,09,59,3.20
2018,09,29,10,00,3.20
2018,09,29,10,01,1.60
2018,09,29,10,02,1.60
2018,09,29,10,04,4.80
2018,09,29,10,05,1.60
2018,09,29,10,06,6.40
2018,09,29,10,07,4.80
2018,09,29,10,08,4.80
2018,09,29,10,10,4.80
2018,09,29,10,12,3.20
2018,09,29,10,13,3.20
2018,09,29,10,14,1.60
2018,09,29,10,15,4.80
2018,09,29,10,16,3.20
2018,09,29,10,18,1.60
2018,09,29,10,19,4.80
2018,09,29,10,22,4.80
2018,09,29,10,23,4.80
2018,09,29,10,24,3.20
2018,09,29,10,25,6.40
2018,09,29,10,26,4.80
2018,09,29,10,27,4.80
2018,09,29,10,31,3.20
2018,09,29,10,32,3.20
2018,09,29,10,33,4.80
2018,09,29,10,34,8.10
2018,09,29,10,35,6.40
2018,09,29,10,36,4.80
2018,09,29,10,40,4.80
2018,09,29,10,41,3.20
2018,09,29,10,42,3.20
2018,09,29,10,43,4.80
2018,09,29,10,44,4.80
2018,09,29,11,07,6.40
2018,09,29,11,08,4.80
2018,09,29,11,09,4.80
2018,09,29,11,10,4.80
2018,09,29,11,11,3.20
2018,09,29,11,12,4.80
2018,09,29,11,13,3.20
2018,09,29,11,14,3.20
2018,09,29,11,25,1.60
2018,09,29,11,29,3.20
2018,09,29,11,30,4.80
2018,09,29,11,33,1.60
2018,09,29,11,34,3.20
2018,09,29,11,35,1.60
2018,09,29,11,36,1.60
2018,09,29,11,38,1.60
2018,09,29,11,39,4.80
2018,09,29,11,40,3.20
2018,09,29,11,41,3.20
2018,09,29,11,44,6.40
2018,09,29,11,45,3.20
2018,09,29,11,46,3.20
2018,09,29,11,48,4.80
2018,09,29,11,49,11.30
2018,09,29,11,50,9.60
2018,09,29,11,51,9.60
2018,09,29,11,52,6.40
2018,09,29,11,53,4.80
2018,09,29,11,54,6.40
2018,09,29,11,55,6.40
2018,09,29,11,56,4.80
2018,09,29,11,57,4.80
2018,09,29,11,58,6.40
2018,09,29,11,59,16.10
2018,09,29,12,00,8.10
2018,09,29,12,01,11.30
2018,09,29,12,02,22.50
2018,09,29,12,03,29.00
2018,09,29,12,04,19.30
2018,09,29,12,05,20.90
2018,09,29,12,06,24.20
2018,09,29,12,07,16.10
2018,09,29,12,08,24.20
2018,09,29,12,09,20.90
2018,09,29,12,10,16.10
2018,09,29,12,11,16.10
2018,09,29,12,12,16.10
2018,09,29,12,13,14.50
2018,09,29,12,14,24.20
2018,09,29,12,15,25.70
2018,09,29,12,16,27.40
2018,09,29,12,17,16.10
2018,09,29,12,18,19.30
2018,09,29,12,19,17.70
2018,09,29,12,20,19.30
2018,09,29,12,21,29.00
2018,09,29,12,22,35.40
2018,09,29,12,23,17.70
2018,09,29,12,24,37.00
2018,09,29,12,25,27.40
2018,09,29,12,26,17.70
2018,09,29,12,27,49.90
2018,09,29,12,28,25.70
2018,09,29,12,29,20.90
2018,09,29,12,30,24.20
2018,09,29,12,31,24.20
2018,09,29,12,32,24.20
2018,09,29,12,33,19.30
2018,09,29,12,34,14.50
2018,09,29,12,35,37.00
2018,09,29,12,36,37.00
2018,09,29,12,37,20.90
2018,09,29,12,38,24.20
2018,09,29,12,39,24.20
2018,09,29,12,40,20.90
2018,09,29,12,41,17.70
2018,09,29,12,42,17.70
2018,09,29,12,43,24.20
2018,09,29,12,44,32.20
2018,09,29,12,45,49.90
2018,09,29,12,46,43.50
2018,09,29,12,47,33.80
2018,09,29,12,48,33.80
2018,09,29,12,49,16.10
2018,09,29,12,50,51.50
2018,09,29,12,51,22.50
2018,09,29,12,52,27.40
2018,09,29,12,53,30.60
2018,09,29,12,54,43.50
2018,09,29,12,55,29.00
2018,09,29,12,56,33.80
2018,09,29,12,57,20.90
2018,09,29,12,58,22.50
2018,09,29,12,59,20.90
2018,09,29,13,00,20.90
2018,09,29,13,01,24.20
2018,09,29,13,02,24.20
2018,09,29,13,03,16.10
2018,09,29,13,04,29.00
2018,09,29,13,05,37.00
2018,09,29,13,06,27.40
2018,09,29,13,07,14.50
2018,09,29,13,08,27.40
2018,09,29,13,09,19.30
2018,09,29,13,10,22.50
2018,09,29,13,11,27.40
2018,09,29,13,12,17.70
2018,09,29,13,13,29.00
2018,09,29,13,14,41.80
2018,09,29,13,15,27.40
2018,09,29,13,16,30.60
2018,09,29,13,17,14.50
2018,09,29,13,18,41.80
2018,09,29,13,19,33.80
2018,09,29,13,20,14.50
2018,09,29,13,21,11.30
2018,09,29,13,22,17.70
2018,09,29,13,23,20.90
2018,09,29,13,24,14.50
2018,09,29,13,25,22.50
2018,09,29,13,26,30.60
2018,09,29,13,27,22.50
2018,09,29,13,28,25.70
2018,09,29,13,29,29.00
2018,09,29,13,30,25.70
2018,09,29,13,31,16.10
2018,09,29,13,32,16.10
2018,09,29,13,33,11.30
2018,09,29,13,34,16.10
2018,09,29,13,35,19.30
2018,09,29,13,36,25.70
2018,09,29,13,37,14.50
2018,09,29,13,38,14.50
2018,09,29,13,39,16.10
2018,09,29,13,40,12.90
2018,09,29,13,41,4.80
2018,09,29,13,42,14.50
2018,09,29,13,43,11.30
2018,09,29,13,44,11.30
2018,09,29,13,45,19.30
2018,09,29,13,46,17.70
2018,09,29,13,47,25.70
2018,09,29,13,48,27.40
2018,09,29,13,49,16.10
2018,09,29,13,50,14.50
2018,09,29,13,51,24.20
2018,09,29,13,52,20.90
2018,09,29,13,53,17.70
2018,09,29,13,54,27.40
2018,09,29,13,55,32.20
2018,09,29,13,56,27.40
2018,09,29,13,57,17.70
2018,09,29,13,58,16.10
2018,09,29,13,59,30.60
2018,09,29,14,00,22.50
2018,09,29,14,01,22.50
2018,09,29,14,02,24.20
2018,09,29,14,03,27.40
2018,09,29,14,04,22.50
2018,09,29,14,05,20.90
2018,09,29,14,06,19.30
2018,09,29,14,07,12.90
2018,09,29,14,08,16.10
2018,09,29,14,09,20.90
2018,09,29,14,10,24.20
2018,09,29,14,11,17.70
2018,09,29,14,12,22.50
2018,09,29,14,13,37.00
2018,09,29,14,14,22.50
2018,09,29,14,15,16.10
2018,09,29,14,16,24.20
2018,09,29,14,17,16.10
2018,09,29,14,18,20.90
2018,09,29,14,19,17.70
2018,09,29,14,20,16.10
2018,09,29,14,21,11.30
2018,09,29,14,22,19.30
2018,09,29,14,23,19.30
2018,09,29,14,24,29.00
2018,09,29,14,25,11.30
2018,09,29,14,26,20.90
2018,09,29,14,27,11.30
2018,09,29,14,28,25.70
2018,09,29,14,29,22.50
2018,09,29,14,30,19.30
2018,09,29,14,31,16.10
2018,09,29,14,32,24.20
2018,09,29,14,33,29.00
2018,09,29,14,34,9.60
2018,09,29,14,35,20.90
2018,09,29,14,36,12.90
2018,09,29,14,37,14.50
2018,09,29,14,38,19.30
2018,09,29,14,39,25.70
2018,09,29,14,40,27.40
2018,09,29,14,41,14.50
2018,09,29,14,42,20.90
2018,09,29,14,43,25.70
2018,09,29,14,44,27.40
2018,09,29,14,45,16.10
2018,09,29,14,46,25.70
2018,09,29,14,47,8.10
2018,09,29,14,48,19.30
2018,09,29,14,49,25.70
2018,09,29,14,50,17.70
2018,09,29,14,51,27.40
2018,09,29,14,52,17.70
2018,09,29,14,53,8.10
2018,09,29,14,54,17.70
2018,09,29,14,55,17.70
2018,09,29,14,56,27.40
2018,09,29,14,57,11.30
2018,09,29,14,58,16.10
2018,09,29,14,59,24.20
2018,09,29,15,00,24.20
2018,09,29,15,01,22.50
2018,09,29,15,02,8.10
2018,09,29,15,03,11.30
2018,09,29,15,04,6.40
2018,09,29,15,05,8.10
2018,09,29,15,06,9.60
2018,09,29,15,07,8.10
2018,09,29,15,08,9.60
2018,09,29,15,09,19.30
2018,09,29,15,10,14.50
2018,09,29,15,11,17.70
2018,09,29,15,12,11.30
2018,09,29,15,13,14.50
2018,09,29,15,14,12.90
2018,09,29,15,15,25.70
2018,09,29,15,16,11.30
2018,09,29,15,17,6.40
2018,09,29,15,18,20.90
2018,09,29,15,19,19.30
2018,09,29,15,20,12.90
2018,09,29,15,21,19.30
2018,09,29,15,22,17.70
2018,09,29,15,23,19.30
2018,09,29,15,24,19.30
2018,09,29,15,25,19.30
2018,09,29,15,26,19.30
2018,09,29,15,27,24.20
2018,09,29,15,28,9.60
2018,09,29,15,29,12.90
2018,09,29,15,30,9.60
2018,09,29,15,31,6.40
2018,09,29,15,32,24.20
2018,09,29,15,33,24.20
2018,09,29,15,34,8.10
2018,09,29,15,35,17.70
2018,09,29,15,36,22.50
2018,09,29,15,37,14.50
2018,09,29,15,38,16.10
2018,09,29,15,39,16.10
2018,09,29,15,40,11.30
2018,09,29,15,41,19.30
2018,09,29,15,42,6.40
2018,09,29,15,43,8.10
2018,09,29,15,44,17.70
2018,09,29,15,45,11.30
2018,09,29,15,46,22.50
2018,09,29,15,47,17.70
2018,09,29,15,48,32.20
2018,09,29,15,49,17.70
2018,09,29,15,50,6.40
2018,09,29,15,51,14.50
2018,09,29,15,52,19.30
2018,09,29,15,53,16.10
2018,09,29,15,54,12.90
2018,09,29,15,55,20.90
2018,09,29,15,56,14.50
2018,09,29,15,57,19.30
2018,09,29,15,58,20.90
2018,09,29,15,59,14.50
2018,09,29,16,00,6.40
2018,09,29,16,01,14.50
2018,09,29,16,02,16.10
2018,09,29,16,03,19.30
2018,09,29,16,04,9.60
2018,09,29,16,05,11.30
2018,09,29,16,06,6.40
2018,09,29,16,07,6.40
2018,09,29,16,08,8.10
2018,09,29,16,09,12.90
2018,09,29,16,10,12.90
2018,09,29,16,11,8.10
2018,09,29,16,12,1.60
2018,09,29,16,13,12.90
2018,09,29,16,14,27.40
2018,09,29,16,15,14.50
2018,09,29,16,16,14.50
2018,09,29,16,17,9.60
2018,09,29,16,18,9.60
2018,09,29,16,19,11.30
2018,09,29,16,20,14.50
2018,09,29,16,21,9.60
2018,09,29,16,22,16.10
2018,09,29,16,23,8.10
2018,09,29,16,24,8.10
2018,09,29,16,25,6.40
2018,09,29,16,26,16.10
2018,09,29,16,27,16.10
2018,09,29,16,28,6.40
2018,09,29,16,29,11.30
2018,09,29,16,30,9.60
2018,09,29,16,31,17.70
2018,09,29,16,32,12.90
2018,09,29,16,33,16.10
2018,09,29,16,34,6.40
2018,09,29,16,35,12.90
2018,09,29,16,36,4.80
2018,09,29,16,37,16.10
2018,09,29,16,38,4.80
2018,09,29,16,39,8.10
2018,09,29,16,40,9.60
2018,09,29,16,41,9.60
2018,09,29,16,42,4.80
2018,09,29,16,43,4.80
2018,09,29,16,44,9.60
2018,09,29,16,45,9.60
2018,09,29,16,46,6.40
2018,09,29,16,47,9.60
2018,09,29,16,48,6.40
2018,09,29,16,49,11.30
2018,09,29,16,50,11.30
2018,09,29,16,51,12.90
2018,09,29,16,52,9.60
2018,09,29,16,53,6.40
2018,09,29,16,54,1.60
2018,09,29,16,55,3.20
2018,09,29,16,56,1.60
2018,09,29,16,57,4.80
2018,09,29,16,59,4.80
2018,09,29,17,01,1.60
2018,09,29,17,02,4.80
2018,09,29,17,03,3.20
2018,09,29,17,04,3.20
2018,09,29,17,46,4.80
2018,09,29,17,50,1.60
2018,09,29,18,07,3.20
2018,09,29,18,08,3.20
2018,09,29,18,11,3.20
2018,09,29,18,12,1.60
2018,09,29,18,19,3.20
2018,09,29,18,20,3.20
2018,09,29,18,22,4.80
2018,09,29,18,23,4.80
2018,09,29,18,24,3.20
2018,09,29,18,48,9.60
2018,09,29,18,49,1.60
2018,09,29,18,50,3.20
2018,09,29,18,55,1.60
2018,09,29,18,56,3.20
2018,09,29,18,57,1.60
2018,09,29,18,58,4.80
2018,09,29,18,59,3.20
2018,09,29,19,02,3.20
2018,09,29,19,03,3.20
2018,09,29,19,05,4.80
2018,09,29,19,06,1.60
2018,09,29,19,11,3.20
2018,09,29,19,12,6.40
2018,09,29,19,13,3.20
2018,09,29,19,14,1.60
2018,09,29,19,15,3.20
2018,09,29,19,16,3.20
2018,09,29,19,17,3.20
2018,09,29,19,18,3.20
2018,09,29,19,19,4.80
2018,09,29,19,20,3.20
2018,09,29,19,21,3.20
2018,09,29,19,22,1.60
2018,09,29,19,23,1.60
2018,09,29,19,24,1.60
2018,09,29,19,27,3.20
2018,09,29,19,28,1.60
2018,09,29,19,29,4.80
2018,09,29,19,30,4.80
2018,09,29,19,31,4.80
2018,09,29,19,32,3.20
2018,09,29,19,34,1.60
2018,09,29,19,35,1.60
2018,09,29,19,36,3.20
2018,09,29,19,37,4.80
2018,09,29,19,38,4.80
2018,09,29,19,39,6.40
2018,09,29,19,40,9.60
2018,09,29,19,41,4.80
2018,09,29,19,42,4.80
2018,09,29,19,43,9.60
2018,09,29,19,44,3.20
2018,09,29,19,45,4.80
2018,09,29,19,46,1.60
2018,09,29,19,47,6.40
2018,09,29,19,48,3.20
2018,09,29,19,49,3.20
2018,09,29,19,50,4.80
2018,09,29,19,51,4.80
2018,09,29,19,52,4.80
2018,09,29,19,53,6.40
2018,09,29,19,56,8.10
2018,09,29,19,57,8.10
2018,09,29,19,58,4.80
2018,09,29,19,59,6.40
2018,09,29,20,00,9.60
2018,09,29,20,01,9.60
2018,09,29,20,02,6.40
2018,09,29,20,03,1.60
2018,09,29,20,04,6.40
2018,09,29,20,05,9.60
2018,09,29,20,06,11.30
2018,09,29,20,07,11.30
2018,09,29,20,08,14.50
2018,09,29,20,09,9.60
2018,09,29,20,10,8.10
2018,09,29,20,11,6.40
2018,09,29,20,12,8.10
2018,09,29,20,13,16.10
2018,09,29,20,14,8.10
2018,09,29,20,15,8.10
2018,09,29,20,16,11.30
2018,09,29,20,17,9.60
2018,09,29,20,18,14.50
2018,09,29,20,19,6.40
2018,09,29,20,20,6.40
2018,09,29,20,21,6.40
2018,09,29,20,22,3.20
2018,09,29,20,23,4.80
2018,09,29,20,24,8.10
2018,09,29,20,25,11.30
2018,09,29,20,26,11.30
2018,09,29,20,27,14.50
2018,09,29,20,28,4.80
2018,09,29,20,29,9.60
2018,09,29,20,30,6.40
2018,09,29,20,32,3.20
2018,09,29,20,33,1.60
2018,09,29,20,34,3.20
2018,09,29,20,35,3.20
2018,09,29,20,36,3.20
2018,09,29,20,37,12.90
2018,09,29,20,38,6.40
2018,09,29,20,39,4.80
2018,09,29,20,40,9.60
2018,09,29,20,41,4.80
2018,09,29,20,42,6.40
2018,09,29,20,43,6.40
2018,09,29,20,44,6.40
2018,09,29,20,46,1.60
2018,09,29,20,48,8.10
2018,09,29,20,49,8.10
2018,09,29,20,50,3.20
2018,09,29,20,52,3.20
2018,09,29,20,53,4.80
2018,09,29,20,54,3.20
2018,09,29,20,56,4.80
2018,09,29,20,57,3.20
2018,09,29,20,59,11.30
2018,09,29,21,00,3.20
2018,09,29,21,01,4.80
2018,09,29,21,02,8.10
2018,09,29,21,03,3.20
2018,09,29,21,04,3.20
2018,09,29,21,06,1.60
2018,09,29,21,07,6.40
2018,09,29,21,08,6.40
2018,09,29,21,09,4.80
2018,09,29,21,10,6.40
2018,09,29,21,11,14.50
2018,09,29,21,12,6.40
2018,09,29,21,13,3.20
2018,09,29,21,14,3.20
2018,09,29,21,15,11.30
2018,09,29,21,16,6.40
2018,09,29,21,17,6.40
2018,09,29,21,18,4.80
2018,09,29,21,19,4.80
2018,09,29,21,20,1.60
2018,09,29,21,21,3.20
2018,09,29,21,22,6.40
2018,09,29,21,23,6.40
2018,09,29,21,24,8.10
2018,09,29,21,25,3.20
2018,09,29,21,26,1.60
2018,09,29,21,29,1.60
2018,09,29,21,30,6.40
2018,09,29,21,31,6.40
2018,09,29,21,32,8.10
2018,09,29,21,33,4.80
2018,09,29,21,34,9.60
2018,09,29,21,35,14.50
2018,09,29,21,36,12.90
2018,09,29,21,37,4.80
2018,09,29,21,38,6.40
2018,09,29,21,39,4.80
2018,09,29,21,40,6.40
2018,09,29,21,41,14.50
2018,09,29,21,42,8.10
2018,09,29,21,43,4.80
2018,09,29,21,44,4.80
2018,09,29,21,45,4.80
2018,09,29,21,46,9.60
2018,09,29,21,47,3.20
2018,09,29,21,48,4.80
2018,09,29,21,49,3.20
2018,09,29,21,51,3.20
2018,09,29,21,52,1.60
2018,09,29,21,53,3.20
2018,09,29,21,54,1.60
2018,09,29,21,56,3.20
2018,09,29,21,57,6.40
2018,09,29,21,58,4.80
2018,09,29,21,59,1.60
2018,09,29,22,00,4.80
2018,09,29,22,01,6.40
2018,09,29,22,02,3.20
2018,09,29,22,05,1.60
2018,09,29,22,06,8.10
2018,09,29,22,07,16.10
2018,09,29,22,08,6.40
2018,09,29,22,09,8.10
2018,09,29,22,10,9.60
2018,09,29,22,11,6.40
2018,09,29,22,12,8.10
2018,09,29,22,13,9.60
2018,09,29,22,14,16.10
2018,09,29,22,15,9.60
2018,09,29,22,16,4.80
2018,09,29,22,17,6.40
2018,09,29,22,18,6.40
2018,09,29,22,19,9.60
2018,09,29,22,20,9.60
2018,09,29,22,21,16.10
2018,09,29,22,22,16.10
2018,09,29,22,23,20.90
2018,09,29,22,24,19.30
2018,09,29,22,25,4.80
2018,09,29,22,26,4.80
2018,09,29,22,27,6.40
2018,09,29,22,28,17.70
2018,09,29,22,29,11.30
2018,09,29,22,30,17.70
2018,09,29,22,31,11.30
2018,09,29,22,32,9.60
2018,09,29,22,33,19.30
2018,09,29,22,34,11.30
2018,09,29,22,35,20.90
2018,09,29,22,36,11.30
2018,09,29,22,37,19.30
2018,09,29,22,38,8.10
2018,09,29,22,39,11.30
2018,09,29,22,40,16.10
2018,09,29,22,41,14.50
2018,09,29,22,42,11.30
2018,09,29,22,43,27.40
2018,09,29,22,44,12.90
2018,09,29,22,45,16.10
2018,09,29,22,46,20.90
2018,09,29,22,47,12.90
2018,09,29,22,48,4.80
2018,09,29,22,49,4.80
2018,09,29,22,50,6.40
2018,09,29,22,51,6.40
2018,09,29,22,52,6.40
2018,09,29,22,55,6.40
2018,09,29,22,56,8.10
2018,09,29,22,57,9.60
2018,09,29,22,58,6.40
2018,09,29,22,59,4.80
2018,09,29,23,00,8.10
2018,09,29,23,01,9.60
2018,09,29,23,02,8.10
2018,09,29,23,03,6.40
2018,09,29,23,04,11.30
2018,09,29,23,05,11.30
2018,09,29,23,06,8.10
2018,09,29,23,07,1.60
2018,09,29,23,08,4.80
2018,09,29,23,09,6.40
2018,09,29,23,11,4.80
2018,09,29,23,12,11.30
2018,09,29,23,13,11.30
2018,09,29,23,14,3.20
2018,09,29,23,15,3.20
2018,09,29,23,16,4.80
2018,09,29,23,17,14.50
2018,09,29,23,18,14.50
2018,09,29,23,19,9.60
2018,09,29,23,20,4.80
2018,09,29,23,21,14.50
2018,09,29,23,22,9.60
2018,09,29,23,23,11.30
2018,09,29,23,24,9.60
2018,09,29,23,25,11.30
2018,09,29,23,26,4.80
2018,09,29,23,27,11.30
2018,09,29,23,28,6.40
2018,09,29,23,29,6.40
2018,09,29,23,30,14.50
2018,09,29,23,31,14.50
2018,09,29,23,32,4.80
2018,09,29,23,33,6.40
2018,09,29,23,34,4.80
2018,09,29,23,35,6.40
2018,09,29,23,36,6.40
2018,09,29,23,37,4.80
2018,09,29,23,38,4.80
2018,09,29,23,39,8.10
2018,09,29,23,40,4.80
2018,09,29,23,42,9.60
2018,09,29,23,43,8.10
2018,09,29,23,44,8.10
2018,09,29,23,45,3.20
2018,09,29,23,46,3.20
2018,09,29,23,47,1.60
2018,09,29,23,50,1.60
2018,09,29,23,51,8.10
2018,09,29,23,52,8.10
2018,09,29,23,53,4.80
2018,09,29,23,54,6.40
2018,09,29,23,55,6.40
2018,09,29,23,56,3.20
2018,09,29,23,57,3.20
2018,09,29,23,58,3.20
2018,09,29,23,59,1.60
